CW6981 Weather Reports


time (UTC)temp
C
wind
direction
speed
KPH
gust
KPH
rain 1hr
cm
rain 24hr
cm
rain mn
cm
humidity
%
barometer
mb
20240615213025 31 96 6.4 11.3 0.00 0.00 0.00 22 1011.8
20240615212539 31 91 4.8 8.0 0.00 0.00 0.00 22 1011.8
20240615212034 31 69 1.6 6.4 0.00 0.00 0.00 22 1011.8
20240615211547 31 86 1.6 6.4 0.00 0.00 0.00 23 1011.8
20240615211048 31 73 1.6 6.4 0.00 0.00 0.00 24 1011.9
20240615210534 31 86 0.0 6.4 0.00 0.00 0.00 24 1011.9
20240615210104 31 93 1.6 6.4 0.00 0.00 0.00 24 1011.9
20240615205535 31 93 1.6 8.0 0.00 0.00 0.00 25 1012.0
20240615205044 31 69 4.8 8.0 0.00 0.00 0.00 25 1012.1
20240615204527 30 77 4.8 6.4 0.00 0.00 0.00 24 1012.0
20240615204041 30 73 1.6 6.4 0.00 0.00 0.00 24 1012.1
20240615203536 30 82 0.0 3.2 0.00 0.00 0.00 26 1012.3
20240615203046 30 82 0.0 3.2 0.00 0.00 0.00 24 1012.4
20240615202549 30 82 0.0 3.2 0.00 0.00 0.00 29 1012.4
20240615202040 30 82 0.0 6.4 0.00 0.00 0.00 27 1012.4
20240615201537 30 83 0.0 6.4 0.00 0.00 0.00 24 1012.4
20240615201035 30 86 0.0 3.2 0.00 0.00 0.00 25 1012.6
20240615200544 30 77 0.0 1.6 0.00 0.00 0.00 27 1012.6
20240615200035 30 77 0.0 6.4 0.00 0.00 0.00 26 1012.6
20240615195533 30 77 0.0 6.4 0.00 0.00 0.00 24 1012.5
20240615195042 30 78 1.6 3.2 0.00 0.00 0.00 24 1012.5
20240615194533 30 77 0.0 3.2 0.00 0.00 0.00 25 1012.5
20240615194030 30 68 0.0 1.6 0.00 0.00 0.00 29 1012.6
20240615193522 30 68 0.0 1.6 0.00 0.00 0.00 28 1012.7
20240615193040 30 68 0.0 1.6 0.00 0.00 0.00 25 1012.8
20240615192533 29 68 0.0 1.6 0.00 0.00 0.00 28 1012.8
20240615192038 29 68 0.0 3.2 0.00 0.00 0.00 28 1012.9
20240615191529 29 68 0.0 3.2 0.00 0.00 0.00 26 1013.0
20240615191105 29 67 0.0 1.6 0.00 0.00 0.00 26 1013.1
20240615190535 29 67 0.0 1.6 0.00 0.00 0.00 28 1013.1
20240615190026 29 67 0.0 1.6 0.00 0.00 0.00 28 1013.1
20240615185542 29 67 0.0 3.2 0.00 0.00 0.00 26 1013.1
20240615185031 28 72 1.6 3.2 0.00 0.00 0.00 27 1013.1
20240615184542 28 67 0.0 1.6 0.00 0.00 0.00 32 1013.2
20240615184037 28 67 0.0 1.6 0.00 0.00 0.00 31 1013.2
20240615183529 28 69 0.0 4.8 0.00 0.00 0.00 26 1013.2
20240615183042 28 71 0.0 4.8 0.00 0.00 0.00 27 1013.2
20240615182536 28 71 0.0 4.8 0.00 0.00 0.00 26 1013.2
20240615182029 28 75 0.0 4.8 0.00 0.00 0.00 29 1013.3
20240615181543 28 77 0.0 4.8 0.00 0.00 0.00 28 1013.3
20240615181038 28 73 3.2 4.8 0.00 0.00 0.00 29 1013.4
20240615180530 28 74 0.0 4.8 0.00 0.00 0.00 30 1013.4
20240615180024 28 60 0.0 3.2 0.00 0.00 0.00 31 1013.5
20240615175601 28 68 0.0 3.2 0.00 0.00 0.00 33 1013.5
20240615175032 28 68 0.0 3.2 0.00 0.00 0.00 32 1013.6
20240615174548 28 68 1.6 4.8 0.00 0.00 0.00 31 1013.6
20240615174044 28 69 0.0 4.8 0.00 0.00 0.00 30 1013.6
20240615173555 27 68 0.0 6.4 0.00 0.00 0.00 30 1013.8
20240615173030 27 81 0.0 6.4 0.00 0.00 0.00 29 1013.8
20240615172527 27 75 0.0 4.8 0.00 0.00 0.00 31 1013.8
20240615172038 27 52 0.0 4.8 0.00 0.00 0.00 34 1013.9
20240615171550 27 60 0.0 6.4 0.00 0.00 0.00 34 1014.0
20240615171042 27 60 1.6 6.4 0.00 0.00 0.00 33 1014.0
20240615170535 27 79 1.6 4.8 0.00 0.00 0.00 33 1014.0
20240615170028 27 65 1.6 4.8 0.00 0.00 0.00 37 1013.9
20240615165544 26 77 0.0 3.2 0.00 0.00 0.00 35 1014.0
20240615165034 26 78 0.0 6.4 0.00 0.00 0.00 37 1014.2
20240615164526 26 77 3.2 6.4 0.00 0.00 0.00 36 1014.2
20240615164029 26 86 1.6 6.4 0.00 0.00 0.00 37 1014.2
20240615163541 26 98 3.2 6.4 0.00 0.00 0.00 39 1014.2
20240615163041 25 79 1.6 3.2 0.00 0.00 0.00 40 1014.2
20240615162535 25 82 0.0 3.2 0.00 0.00 0.00 38 1014.2
20240615162026 25 80 0.0 3.2 0.00 0.00 0.00 42 1014.2
20240615161537 25 80 0.0 3.2 0.00 0.00 0.00 39 1014.2
20240615161032 24 80 0.0 3.2 0.00 0.00 0.00 39 1014.2
20240615160540 24 80 0.0 3.2 0.00 0.00 0.00 39 1014.3
20240615160032 24 77 0.0 3.2 0.00 0.00 0.00 40 1014.3
20240615155544 23 76 1.6 4.8 0.00 0.00 0.00 45 1014.4
20240615155027 23 76 1.6 4.8 0.00 0.00 0.00 46 1014.4
20240615154541 23 81 1.6 3.2 0.00 0.00 0.00 50 1014.5
20240615154034 23 73 0.0 3.2 0.00 0.00 0.00 49 1014.6
20240615153538 22 73 1.6 4.8 0.00 0.00 0.00 52 1014.6
20240615153049 22 72 1.6 4.8 0.00 0.00 0.00 50 1014.6
20240615152542 22 73 1.6 4.8 0.00 0.00 0.00 51 1014.6
20240615152030 21 71 1.6 4.8 0.00 0.00 0.00 53 1014.8
20240615151544 21 71 1.6 3.2 0.00 0.00 0.00 58 1014.7
20240615151035 21 71 0.0 3.2 0.00 0.00 0.00 57 1014.8
20240615150544 21 71 1.6 3.2 0.00 0.00 0.00 59 1014.9
20240615150033 20 71 0.0 3.2 0.00 0.00 0.00 62 1014.9
20240615145546 20 71 1.6 3.2 0.00 0.00 0.00 63 1014.9
20240615145023 19 71 0.0 3.2 0.00 0.00 0.00 61 1014.9
20240615144536 19 229 1.6 3.2 0.00 0.00 0.00 62 1015.0
20240615144047 18 229 0.0 1.6 0.00 0.00 0.00 63 1015.1
20240615143534 18 229 0.0 1.6 0.00 0.00 0.00 71 1015.0
20240615143043 18 229 0.0 1.6 0.00 0.00 0.00 70 1015.0
20240615142536 17 229 0.0 1.6 0.00 0.00 0.00 73 1015.1
20240615142033 17 229 0.0 1.6 0.00 0.00 0.00 73 1015.1
20240615141558 17 229 0.0 1.6 0.00 0.00 0.00 73 1015.2
20240615141107 16 235 0.0 1.6 0.00 0.00 0.00 77 1015.2
20240615140534 16 235 0.0 0.0 0.00 0.00 0.00 79 1015.2
20240615140029 16 235 0.0 0.0 0.00 0.00 0.00 79 1015.2
20240615135601 16 235 0.0 1.6 0.00 0.00 0.00 82 1015.2
20240615135049 15 235 0.0 1.6 0.00 0.00 0.00 84 1015.3
20240615134541 15 235 0.0 3.2 0.00 0.00 0.00 85 1015.4
20240615134038 15 235 1.6 3.2 0.00 0.00 0.00 85 1015.4
20240615133528 15 235 0.0 1.6 0.00 0.00 0.00 86 1015.4
20240615133101 14 235 0.0 1.6 0.00 0.00 0.00 86 1015.4
20240615132536 14 235 0.0 3.2 0.00 0.00 0.00 87 1015.4
20240615132030 13 235 0.0 3.2 0.00 0.00 0.00 87 1015.5
20240615131539 13 235 0.0 1.6 0.00 0.00 0.00 86 1015.4
20240615131036 13 235 0.0 1.6 0.00 0.00 0.00 86 1015.4
20240615130545 13 235 1.6 1.6 0.00 0.00 0.00 86 1015.4
20240615130038 13 235 0.0 1.6 0.00 0.00 0.00 87 1015.5
20240615125534 12 235 0.0 1.6 0.00 0.00 0.00 87 1015.5
20240615125044 12 235 0.0 1.6 0.00 0.00 0.00 86 1015.6
20240615124538 12 235 0.0 1.6 0.00 0.00 0.00 86 1015.6
20240615124037 12 235 0.0 0.0 0.00 0.00 0.00 85 1015.7
20240615123536 12 235 0.0 0.0 0.00 0.00 0.00 85 1015.6
20240615123052 12 233 0.0 0.0 0.00 0.00 0.00 84 1015.6
20240615122545 12 233 0.0 0.0 0.00 0.00 0.00 84 1015.7
20240615122034 12 233 0.0 0.0 0.00 0.00 0.00 84 1015.6
20240615121531 12 233 0.0 0.0 0.00 0.00 0.00 83 1015.7
20240615121044 12 233 0.0 0.0 0.00 0.00 0.00 83 1015.7
20240615120532 12 233 0.0 0.0 0.00 0.00 0.00 83 1015.6
20240615120027 12 233 0.0 0.0 0.00 0.00 0.00 82 1015.7
20240615115543 12 233 0.0 0.0 0.00 0.00 0.00 82 1015.6
20240615115037 12 233 0.0 0.0 0.00 0.00 0.00 82 1015.6
20240615114551 12 233 0.0 0.0 0.00 0.00 0.00 82 1015.8
20240615114027 12 233 0.0 0.0 0.00 0.00 0.00 82 1015.7
20240615113538 12 233 0.0 0.0 0.00 0.00 0.00 82 1015.7
20240615113049 12 233 0.0 0.0 0.00 0.00 0.00 81 1015.6
20240615112539 12 233 0.0 0.0 0.00 0.00 0.00 81 1015.6
20240615112030 13 233 0.0 0.0 0.00 0.00 0.00 81 1015.6
20240615111541 13 233 0.0 0.0 0.00 0.00 0.00 81 1015.6
20240615111037 13 233 0.0 0.0 0.00 0.00 0.00 81 1015.6
20240615110548 13 233 0.0 0.0 0.00 0.00 0.00 81 1015.6
20240615110030 13 233 0.0 0.0 0.00 0.00 0.00 81 1015.5
20240615105542 13 233 0.0 0.0 0.00 0.00 0.00 81 1015.6
20240615105032 13 233 0.0 0.0 0.00 0.00 0.00 81 1015.6
20240615104527 13 233 0.0 0.0 0.00 0.00 0.00 81 1015.5
20240615104043 13 233 0.0 0.0 0.00 0.00 0.00 81 1015.5
20240615103535 13 233 0.0 0.0 0.00 0.00 0.00 80 1015.5
20240615103046 13 233 0.0 0.0 0.00 0.00 0.00 80 1015.6
20240615102537 13 233 0.0 0.0 0.00 0.00 0.00 80 1015.5
20240615102025 13 233 0.0 0.0 0.00 0.00 0.00 80 1015.5
20240615101539 14 233 0.0 1.6 0.00 0.00 0.00 79 1015.7
20240615101032 14 233 0.0 1.6 0.00 0.00 0.00 79 1015.8
20240615100530 14 233 0.0 1.6 0.00 0.00 0.00 79 1015.6
20240615100041 14 233 0.0 1.6 0.00 0.00 0.00 79 1015.8
20240615095535 14 233 0.0 1.6 0.00 0.00 0.00 78 1015.9
20240615095044 14 233 0.0 0.0 0.00 0.00 0.00 78 1015.9
20240615094534 15 233 0.0 0.0 0.00 0.00 0.00 78 1015.9
20240615094027 15 233 0.0 0.0 0.00 0.00 0.00 77 1015.9
20240615093532 15 233 0.0 0.0 0.00 0.00 0.00 77 1015.9
20240615093026 15 233 0.0 0.0 0.00 0.00 0.00 77 1015.9
20240615092538 15 233 0.0 0.0 0.00 0.00 0.00 77 1016.0
20240615092032 15 233 0.0 0.0 0.00 0.00 0.00 77 1016.1
20240615091525 15 233 0.0 0.0 0.00 0.00 0.00 77 1016.1
20240615091035 15 233 0.0 0.0 0.00 0.00 0.00 77 1016.1
20240615090541 16 233 0.0 1.6 0.00 0.00 0.00 76 1016.2
20240615090032 16 233 0.0 1.6 0.00 0.00 0.00 77 1016.2
20240615085529 16 233 0.0 0.0 0.00 0.00 0.00 76 1016.2
20240615085039 16 233 0.0 1.6 0.00 0.00 0.00 76 1016.2
20240615084549 16 233 0.0 1.6 0.00 0.00 0.00 76 1016.3
20240615084041 16 233 0.0 0.0 0.00 0.00 0.00 75 1016.2
20240615083528 16 233 0.0 0.0 0.00 0.00 0.00 74 1016.2
20240615083041 16 233 0.0 0.0 0.00 0.00 0.00 73 1016.3
20240615082536 17 233 0.0 1.6 0.00 0.00 0.00 73 1016.3
20240615082028 17 233 0.0 1.6 0.00 0.00 0.00 72 1016.2
20240615081542 17 233 0.0 1.6 0.00 0.00 0.00 72 1016.1
20240615081037 17 233 0.0 1.6 0.00 0.00 0.00 72 1016.0
20240615080527 17 233 0.0 0.0 0.00 0.00 0.00 71 1016.0
20240615080100 17 233 0.0 0.0 0.00 0.00 0.00 72 1015.9
20240615075535 17 233 0.0 1.6 0.00 0.00 0.00 71 1015.9
20240615075031 17 233 0.0 1.6 0.00 0.00 0.00 70 1015.9
20240615074604 17 233 0.0 1.6 0.00 0.00 0.00 69 1015.9
20240615074032 17 233 0.0 1.6 0.00 0.00 0.00 68 1015.9
20240615073526 17 233 0.0 0.0 0.00 0.00 0.00 66 1015.9
20240615073039 17 233 0.0 0.0 0.00 0.00 0.00 66 1015.9
20240615072535 18 233 0.0 0.0 0.00 0.00 0.00 66 1015.9
20240615072026 18 233 0.0 0.0 0.00 0.00 0.00 64 1015.9
20240615071540 18 233 0.0 1.6 0.00 0.00 0.00 64 1015.9
20240615071059 18 233 0.0 1.6 0.00 0.00 0.00 63 1016.0
20240615070532 18 233 0.0 0.0 0.00 0.00 0.00 62 1016.1
20240615070025 17 233 0.0 1.6 0.00 0.00 0.00 61 1016.1
20240615065540 17 233 0.0 1.6 0.00 0.00 0.00 60 1016.1
20240615065033 17 233 0.0 1.6 0.00 0.00 0.00 59 1016.0
20240615064529 18 233 0.0 3.2 0.00 0.00 0.00 59 1016.1
20240615064026 18 233 0.0 3.2 0.00 0.00 0.00 58 1016.1
20240615063541 18 234 0.0 1.6 0.00 0.00 0.00 58 1016.1
20240615063034 18 234 1.6 1.6 0.00 0.00 0.00 58 1016.0
20240615062530 18 234 0.0 1.6 0.00 0.00 0.00 57 1016.0
20240615062042 18 234 0.0 1.6 0.00 0.00 0.00 58 1015.9
20240615061534 18 234 0.0 1.6 0.00 0.00 0.00 58 1015.9
20240615061028 18 234 0.0 1.6 0.00 0.00 0.00 58 1015.9
20240615060540 18 234 0.0 1.6 0.00 0.00 0.00 59 1015.9
20240615060058 18 234 0.0 1.6 0.00 0.00 0.00 59 1015.9
20240615055605 18 234 0.0 1.6 0.00 0.00 0.00 59 1016.0
20240615055036 18 234 0.0 1.6 0.00 0.00 0.00 60 1016.1
20240615054529 18 234 0.0 0.0 0.00 0.00 0.00 59 1016.0
20240615054044 18 234 0.0 1.6 0.00 0.00 0.00 60 1016.1
20240615053537 18 234 0.0 1.6 0.00 0.00 0.00 60 1016.1
20240615053026 18 235 0.0 0.0 0.00 0.00 0.00 58 1016.2
20240615052541 18 234 0.0 0.0 0.00 0.00 0.00 57 1016.2
20240615052034 18 234 0.0 0.0 0.00 0.00 0.00 58 1016.2
20240615051527 18 235 0.0 0.0 0.00 0.00 0.00 57 1016.1
20240615051037 18 234 0.0 1.6 0.00 0.00 0.00 57 1016.1
20240615050540 18 234 0.0 1.6 0.00 0.00 0.00 57 1016.0
20240615050053 18 234 0.0 1.6 0.00 0.00 0.00 57 1015.9
20240615045536 18 234 0.0 1.6 0.00 0.00 0.00 57 1015.9
20240615045028 18 234 0.0 1.6 0.00 0.00 0.00 58 1015.8
20240615044556 19 235 0.0 0.0 0.00 0.00 0.00 58 1015.8
20240615044044 19 235 0.0 0.0 0.00 0.00 0.00 57 1015.7
20240615043533 19 235 0.0 0.0 0.00 0.00 0.00 57 1015.7
20240615043026 20 235 0.0 0.0 0.00 0.00 0.00 56 1015.6
20240615042540 20 235 0.0 0.0 0.00 0.00 0.00 56 1015.5
20240615042039 20 235 0.0 0.0 0.00 0.00 0.00 55 1015.5
20240615041548 20 235 0.0 1.6 0.00 0.00 0.00 55 1015.4
20240615041026 20 235 0.0 1.6 0.00 0.00 0.00 54 1015.4
20240615040536 21 235 0.0 0.0 0.00 0.00 0.00 52 1015.4
20240615040034 21 235 0.0 0.0 0.00 0.00 0.00 52 1015.3
20240615035546 21 235 0.0 0.0 0.00 0.00 0.00 53 1015.3
20240615035034 21 235 0.0 0.0 0.00 0.00 0.00 51 1015.3
20240615034527 22 235 0.0 0.0 0.00 0.00 0.00 49 1015.2
20240615034040 22 235 0.0 0.0 0.00 0.00 0.00 47 1015.2
20240615033525 22 235 0.0 0.0 0.00 0.00 0.00 46 1015.0
20240615033036 22 235 0.0 0.0 0.00 0.00 0.00 45 1015.0
20240615032536 22 235 0.0 0.0 0.00 0.00 0.00 45 1015.0
20240615032025 22 235 0.0 0.0 0.00 0.00 0.00 44 1015.0
20240615031547 23 235 0.0 0.0 0.00 0.00 0.00 45 1014.9
20240615031037 23 235 0.0 0.0 0.00 0.00 0.00 44 1014.9
20240615030526 23 235 0.0 1.6 0.00 0.00 0.00 43 1014.8
20240615030041 23 235 0.0 1.6 0.00 0.00 0.00 42 1014.8
20240615025533 23 235 0.0 1.6 0.00 0.00 0.00 41 1015.0
20240615025029 24 235 0.0 1.6 0.00 0.00 0.00 40 1015.1
20240615024538 24 233 0.0 0.0 0.00 0.00 0.00 40 1015.1
20240615024032 24 233 0.0 1.6 0.00 0.00 0.00 40 1015.2
20240615023543 24 233 0.0 1.6 0.00 0.00 0.00 40 1015.2
20240615023053 25 233 0.0 1.6 0.00 0.00 0.00 39 1015.2
20240615022604 25 233 0.0 1.6 0.00 0.00 0.00 38 1015.2
20240615022033 25 233 0.0 1.6 0.00 0.00 0.00 38 1015.2
20240615021526 25 233 0.0 1.6 0.00 0.00 0.00 38 1015.3
20240615021037 25 214 0.0 4.8 0.00 0.00 0.00 38 1015.4
20240615020529 25 310 0.0 4.8 0.00 0.00 0.00 38 1015.6
20240615020042 25 270 1.6 3.2 0.00 0.00 0.00 38 1015.7
20240615015558 25 275 1.6 3.2 0.00 0.00 0.00 37 1015.8
20240615015029 25 250 0.0 3.2 0.00 0.00 0.00 41 1015.8
20240615014543 25 262 0.0 3.2 0.00 0.00 0.00 42 1015.8
20240615014037 25 239 0.0 6.4 0.00 0.00 0.00 42 1015.8
20240615013530 25 282 0.0 6.4 0.00 0.00 0.00 43 1015.8
20240615013042 25 243 1.6 4.8 0.00 0.00 0.00 44 1016.0
20240615012532 24 27 0.0 0.0 0.00 0.00 0.00 51 1016.1
20240615012041 24 27 0.0 0.0 0.00 0.00 0.00 49 1016.0
20240615011528 24 27 0.0 0.0 0.00 0.00 0.00 49 1016.0
20240615011041 25 27 0.0 0.0 0.00 0.00 0.00 53 1016.0
20240615010530 25 27 0.0 0.0 0.00 0.00 0.00 48 1016.0
20240615010042 25 27 0.0 0.0 0.00 0.00 0.00 51 1016.0
20240615005537 25 27 0.0 0.0 0.00 0.00 0.00 53 1016.0
20240615005028 25 27 0.0 0.0 0.00 0.00 0.00 46 1015.9
20240615004539 25 27 0.0 0.0 0.00 0.00 0.00 48 1015.8
20240615004051 26 27 0.0 0.0 0.00 0.00 0.00 46 1015.7
20240615003535 26 27 0.0 0.0 0.00 0.00 0.00 39 1015.6
20240615003029 27 27 0.0 1.6 0.00 0.00 0.00 41 1015.5
20240615002540 27 27 0.0 1.6 0.00 0.00 0.00 43 1015.6
20240615002029 27 27 0.0 1.6 0.00 0.00 0.00 42 1015.6
20240615001535 26 27 0.0 1.6 0.00 0.00 0.00 46 1015.6
20240615001028 26 27 0.0 1.6 0.00 0.00 0.00 42 1015.5
20240615000554 26 27 0.0 0.0 0.00 0.00 0.00 41 1015.5
20240615000043 26 27 0.0 0.0 0.00 0.00 0.00 41 1015.6
20240614235536 26 27 0.0 1.6 0.00 0.00 0.00 41 1015.6
20240614235031 27 27 0.0 1.6 0.00 0.00 0.00 37 1015.5
20240614234524 27 26 0.0 3.2 0.00 0.00 0.00 35 1015.4
20240614234040 27 27 1.6 3.2 0.00 0.00 0.00 35 1015.4
20240614233531 26 239 0.0 1.6 0.00 0.00 0.00 41 1015.3
20240614233022 26 239 0.0 3.2 0.00 0.00 0.00 36 1015.4
20240614232600 26 239 0.0 3.2 0.00 0.00 0.00 37 1015.4
20240614232030 26 237 0.0 1.6 0.00 0.00 0.00 38 1015.7
20240614231542 26 237 0.0 1.6 0.00 0.00 0.00 36 1015.8
20240614231036 26 237 0.0 1.6 0.00 0.00 0.00 37 1015.8
20240614230528 26 237 0.0 1.6 0.00 0.00 0.00 37 1015.9
20240614230043 26 238 0.0 1.6 0.00 0.00 0.00 39 1015.9
20240614225535 27 238 0.0 1.6 0.00 0.00 0.00 36 1016.0
20240614225043 26 238 0.0 1.6 0.00 0.00 0.00 39 1016.0
20240614224534 26 239 0.0 3.2 0.00 0.00 0.00 43 1016.0
20240614224104 26 245 1.6 3.2 0.00 0.00 0.00 41 1015.8
20240614223553 25 157 0.0 3.2 0.00 0.00 0.00 42 1015.6
20240614223046 25 237 0.0 3.2 0.00 0.00 0.00 45 1015.7
20240614222540 24 123 0.0 1.6 0.00 0.00 0.00 51 1015.9
20240614222034 24 123 0.0 1.6 0.00 0.00 0.00 47 1015.9
20240614221544 25 123 0.0 1.6 0.00 0.00 0.00 48 1016.2
20240614221040 23 123 0.0 1.6 0.00 0.00 0.00 58 1016.4
20240614220531 22 123 0.0 1.6 0.00 0.00 0.00 59 1016.3
20240614220042 22 123 0.0 1.6 0.00 0.00 0.00 61 1016.4
20240614215533 21 123 0.0 1.6 0.00 0.00 0.00 68 1016.6
20240614215040 22 123 0.0 0.0 0.00 0.00 0.00 61 1016.8
20240614214551 22 123 0.0 1.6 0.00 0.00 0.00 56 1017.0
20240614214046 22 123 0.0 3.2 0.00 0.00 0.00 60 1017.4
20240614213535 22 123 0.0 3.2 0.00 0.00 0.00 59 1017.7